sat.trackr.live / text

‹ back to catalog

STARLINK-31946

NORAD 59940 · 2024-106U

PAYLOAD ACTIVE UNKNOWN

§ Identity

Operator
Country
US
Launch date
2024-06-01
Launch site
AFETR
Launch vehicle
Mass (kg)
RCS (m²)

Purposes: comms

External: N2YO · Heavens-Above · Gunter

§ Orbital elements

Epoch: 2026-09-21T10:13:46.740288Z

Period
94.27 min
Inclination
43.0018°
Eccentricity
0.0000979
Mean motion
15.27577796 rev/d
Perigee alt
482.4 km
Apogee alt
483.7 km
Semi-major
6,861.2 km
B*
3.2926e-5
RAAN
307.4917°
Arg perigee
279.2956°
Mean anomaly
80.7784°
Rev number
12,108

§ Raw data

STARLINK-319461 59940U 24106U   26264.42623542  .00000644  00000+0  32926-4 0  99972 59940  43.0018 307.4917 0000979 279.2956  80.7784 15.27577796121083

JSON: /api/v1/satellites/59940 · /tle

For live sub-satellite position, see the globe view (requires WebGL).

§ Visibility from observer

Set your observer location to see the next 7 days of passes ≥ 10°. The values pass through the URL so the page stays shareable.

No JS? Fill the form by hand. The geolocation button needs JavaScript.